Flag for France Weather past 2 weeks in Amsterdam Island, French Southern Territories, France

Now
51 °F

Cool.


Feels Like: 44 °F
Forecast: 55 / 57 °F
Wind: 30 mph from West

Location: Martin De Vivies Ile Amsterdam

Current Time: Jul 25, 2014 at 7:24:59 AM

Latest Report: Jul 25, 2014 at 6:00 AM


Visibility: N/A

Pressure: 30.20 "Hg

Humidity: 75%

Dew point: 44 °F

Location of Amsterdam IslandLocation

Historic Weather in Amsterdam Island — Graph

°F

Amsterdam Island temperature yesterday

Maximum temperature yesterday: 48 °F (at 12:00 AM)
Minimum temperature yesterday: 42 °F (at 12:00 PM)
Average temperature yesterday: 45 °F

Past Weeks' High & Low Weather Summary

 TemperatureHumidityPressure
High61 °F (Jul 10, 11:00 PM)98% (Jul 20, 4:00 PM)30.35 "Hg (Jul 20, 4:00 PM)
Low42 °F (Jul 24, 12:00 PM)54% (Jul 12, 3:00 PM)29.26 "Hg (Jul 11, 2:00 AM)
Average55 °F81%30.01 "Hg
* Reported Jul 10 6:00 AM — Jul 25 6:00 AM, Amsterdam Island, Weather by CustomWeather, © 2014

Note: Actual official high and low records may vary slightly from our data, if they occured in-between our weather recording intervals... More about our weather records

Advertising

Amsterdam Island weather history for previous 24 hours

 ConditionsComfort  
Time TempWeatherWind HumidityBarometerVisibility
6:00 AM
Jul 25
51 °FCool.30 mph75%30.20 "HgN/A
5:00 AM50 °FCool.24 mph72%30.20 "HgN/A
4:00 AM49 °FCool.24 mph74%30.21 "HgN/A
3:00 AM47 °FCool.18 mph83%30.21 "HgN/A
2:00 AM47 °FCool.21 mph78%30.21 "HgN/A
1:00 AM46 °FCool.17 mph79%30.21 "HgN/A
12:00 AM45 °FCool.16 mph75%30.20 "HgN/A
11:00 PM
Jul 24
44 °FQuite cool.16 mph81%30.20 "HgN/A
10:00 PM44 °FQuite cool.23 mph72%30.20 "HgN/A
9:00 PM46 °FCool.23 mph59%30.17 "HgN/A
8:00 PM46 °FCool.21 mph63%30.15 "HgN/A
7:00 PM45 °FCool.20 mph72%30.13 "HgN/A
6:00 PM43 °FQuite cool.23 mph75%30.10 "HgN/A
5:00 PM43 °FQuite cool.29 mph72%30.08 "HgN/A
4:00 PM43 °FQuite cool.29 mph74%30.06 "HgN/A
3:00 PM45 °FCool.26 mph69%30.04 "HgN/A
2:00 PM47 °FCool.26 mph54%30.01 "HgN/A
1:00 PM47 °FCool.28 mph54%29.99 "HgN/A
12:00 PM42 °FQuite cool.26 mph81%29.97 "HgN/A
11:00 AM43 °FQuite cool.30 mph79%29.96 "HgN/A
10:00 AM46 °FCool.21 mph81%29.93 "HgN/A
9:00 AM43 °FQuite cool.22 mph78%29.89 "HgN/A
8:00 AM44 °FQuite cool.21 mph73%29.85 "HgN/A
7:00 AM45 °FQuite cool.18 mph77%29.81 "HgN/A
Weather by CustomWeather, © 2014

See weather overviewHow to use our weather pages